Volver al catálogo

CZ-6A DEB

ActivoSSO
NORAD 54391·DEBRIS·🇨🇳 China

Lanzado Nov 11, 2022 desde Taiyuan Satellite Launch Center

Loading…

Próximos Pases (próximas 24 horas)

TLE

ActualizadoSource: Space-Track

Época: Sep 14, 2026, 02:13 UTC

1 54391U 22151DP  26257.09257233  .00001553  00000-0  32433-3 0  9998
2 54391  98.4575 298.5497 0132209 347.3555  12.4336 14.56077172203010

Sigue CZ-6A DEB en tiempo real con AllMySat

Download on the App Store